Temp
10 12 12 12 12 12 12 12 11 11 10 10 10 9 10 9 9 9 9 9 8 8
10 10 11 12 11 11 12 11 11 11 11 11 10 10 10 10 10 9 9 9 9 8
9 10 11 11 11 11 11 11 11 11 11 11 10 10 10 10 10 9 9 9 8 9
9 9 9 10 10 10 10 10 10 10 10 10 10 10 10 10 10 10 9 9 9 9
8 8 9 9 10 10 10 10 10 9 9 9 9 9 9 9 9 9 9 9 9 9
7 8 8 8 9 9 10 10 9 8 8 8 8 9 9 10 10 10 10 10 9 9
7 7 8 7 8 8 10 9 9 8 8 8 8 8 9 9 9 9 9 9 8 8
5 6 6 7 7 7 8 8 8 8 8 8 8 8 8 8 8 8 8 8 8 7
2 4 5 6 6 6 7 7 7 7 7 7 8 8 8 8 8 7 7 7 7 6
0 2 4 5 6 6 6 6 6 6 6 7 7 7 7 7 7 6 6 6 6 5
-1 0 2 3 5 6 6 5 5 5 5 6 6 6 6 6 6 6 6 6 5 5
-3 -2 -1 1 2 4 5 5 5 6 6 6 6 6 6 6 6 6 5 5 5 5
-4 -3 -2 -1 -0 1 3 4 5 5 6 6 5 6 5 5 5 5 5 5 5 5
-5 -4 -4 -3 -2 -1 1 1 2 3 4 4 5 5 5 5 5 5 5 5 5 5
Height
1472 1477 1482 1486 1490 1494 1499 1504 1509 1514 1518 1522 1527 1531 1535 1537 1542 1546 1549 1553 1556 1560
1466 1471 1476 1481 1485 1489 1494 1499 1504 1508 1512 1516 1520 1525 1529 1533 1536 1539 1543 1546 1550 1553
1460 1465 1470 1475 1480 1484 1489 1494 1498 1502 1506 1510 1514 1518 1523 1526 1530 1533 1536 1540 1542 1545
1455 1460 1464 1469 1474 1478 1483 1487 1492 1496 1500 1503 1507 1511 1515 1519 1523 1526 1530 1533 1535 1538
1450 1454 1459 1463 1468 1473 1477 1482 1487 1490 1493 1497 1501 1504 1507 1509 1513 1519 1522 1525 1528 1531
1445 1449 1454 1458 1463 1467 1471 1476 1481 1484 1487 1490 1494 1498 1501 1505 1508 1511 1514 1517 1519 1522
1441 1444 1449 1452 1457 1462 1466 1471 1474 1477 1480 1484 1487 1491 1494 1497 1499 1502 1505 1507 1510 1512
1437 1440 1444 1448 1452 1457 1460 1463 1467 1470 1473 1476 1479 1482 1485 1488 1491 1494 1496 1498 1502 1504
1435 1438 1440 1443 1447 1451 1454 1457 1460 1463 1465 1468 1471 1475 1477 1480 1482 1484 1487 1491 1494 1497
1435 1434 1435 1438 1442 1446 1449 1452 1455 1458 1460 1463 1466 1468 1471 1473 1475 1478 1481 1484 1486 1490
1433 1432 1432 1435 1438 1441 1445 1448 1451 1453 1456 1458 1461 1463 1465 1468 1471 1473 1476 1478 1481 1484
1435 1434 1433 1434 1435 1437 1439 1442 1446 1449 1451 1454 1457 1459 1462 1464 1467 1470 1472 1474 1477 1480
1439 1438 1435 1435 1434 1436 1436 1437 1442 1445 1448 1451 1454 1456 1459 1462 1464 1467 1469 1471 1473 1476
1443 1441 1439 1437 1437 1436 1436 1439 1440 1442 1444 1447 1450 1453 1455 1458 1460 1463 1466 1468 1470 1473
Wind_Speed
32 31 29 26 25 26 27 27 28 32 32 30 31 30 29 28 29 30 30 31 30 29
33 31 28 23 22 24 24 25 24 26 30 31 30 30 29 30 28 30 30 29 29 29
32 30 31 29 25 24 25 25 25 26 28 28 29 30 32 32 30 29 30 31 32 31
27 29 30 31 30 27 26 26 25 25 27 26 27 29 34 34 33 33 32 32 31 32
27 24 28 29 30 27 26 25 25 22 24 24 25 26 28 30 30 33 34 36 36 35
24 25 25 26 24 22 23 24 29 27 26 27 27 27 26 29 31 33 33 35 38 38
21 26 25 26 24 25 27 28 31 30 30 30 30 31 32 31 33 33 36 32 34 37
15 20 25 24 27 23 27 28 30 30 31 31 31 32 31 30 33 30 29 30 32 30
8 15 17 19 19 20 20 20 22 22 22 23 24 25 26 26 25 24 24 29 26 23
5 8 13 17 19 19 19 20 20 20 21 20 19 18 20 20 20 20 20 20 21 20
11 7 8 12 18 22 24 21 17 16 15 17 17 16 16 17 16 15 15 14 15 16
15 13 11 9 11 16 21 23 17 17 17 16 17 15 17 15 13 11 11 11 11 12
16 15 16 13 11 10 13 18 20 20 19 17 15 15 16 17 12 13 12 13 13 14
16 16 15 16 14 13 13 14 19 19 19 19 18 16 15 15 13 13 12 10 11 13
Wind_Direction
219 219 226 230 231 231 226 226 222 227 225 227 222 225 227 230 226 232 235 238 236 240
220 219 219 223 227 220 223 225 228 232 231 230 223 226 231 235 234 229 233 239 240 245
220 220 218 220 222 221 225 226 230 231 227 227 227 226 227 235 237 241 237 239 239 241
215 222 223 223 221 221 223 226 231 232 233 229 232 234 235 235 237 241 244 245 249 247
219 215 222 225 222 224 224 222 227 228 225 228 231 235 239 238 242 247 248 251 253 253
218 216 218 222 211 209 218 222 229 226 230 230 229 233 237 241 245 249 249 251 255 256
188 200 206 201 203 211 220 229 231 233 234 235 238 240 238 240 243 248 256 253 258 257
197 191 197 205 214 225 225 225 227 231 236 237 239 237 238 241 243 248 250 250 256 257
182 187 194 200 206 217 219 219 218 218 221 225 237 236 239 239 238 237 241 243 246 245
132 172 171 186 198 201 212 207 210 214 215 217 218 214 222 226 224 226 229 235 237 238
70 114 162 185 187 194 195 197 201 205 206 209 211 210 213 214 214 215 219 222 231 233
54 67 101 140 165 175 183 186 196 197 199 208 209 208 200 193 193 199 205 207 214 219
45 56 63 78 108 134 165 170 184 195 193 199 197 201 196 194 202 199 202 213 218 221
47 49 54 65 80 103 130 141 145 156 164 175 180 170 178 179 186 203 203 193 205 223